QPF
0.00 0.02 0.00 0.00 0.00 0.00 0.00 0.00 0.00 0.00 0.00 0.00 0.00 0.00 0.00 0.00 0.00 0.00 0.00 0.00 0.00 0.00 0.00 0.00 0.00 0.00 0.00 0.00 0.00 0.00 0.00 0.00 0.00 0.00 0.00 0.00 0.00 0.00 0.01 0.03 0.02 0.03 0.03 0.02 0.01 0.00 0.00 0.00 0.00
0.00 0.00 0.00 0.00 0.00 0.00 0.00 0.00 0.00 0.00 0.00 0.00 0.00 0.00 0.00 0.00 0.00 0.00 0.00 0.00 0.00 0.00 0.00 0.00 0.00 0.00 0.00 0.00 0.00 0.00 0.00 0.00 0.00 0.00 0.00 0.01 0.01 0.00 0.01 0.05 0.03 0.05 0.03 0.02 0.01 0.00 0.00 0.00 0.01
0.00 0.00 0.00 0.00 0.00 0.00 0.00 0.00 0.00 0.00 0.00 0.00 0.00 0.00 0.00 0.00 0.00 0.00 0.00 0.00 0.00 0.00 0.00 0.00 0.00 0.00 0.00 0.00 0.00 0.00 0.00 0.00 0.00 0.00 0.00 0.01 0.01 0.01 0.01 0.03 0.02 0.05 0.04 0.02 0.00 0.00 0.00 0.00 0.01
0.00 0.01 0.00 0.00 0.00 0.00 0.00 0.00 0.00 0.00 0.00 0.00 0.00 0.00 0.00 0.00 0.00 0.00 0.00 0.00 0.00 0.00 0.00 0.00 0.00 0.00 0.00 0.00 0.00 0.00 0.00 0.00 0.01 0.01 0.02 0.01 0.01 0.02 0.04 0.03 0.01 0.00 0.01 0.00 0.00 0.00 0.00 0.00 0.01
0.00 0.01 0.00 0.00 0.00 0.00 0.00 0.00 0.00 0.00 0.00 0.00 0.00 0.00 0.00 0.00 0.00 0.00 0.00 0.00 0.00 0.00 0.00 0.00 0.00 0.00 0.00 0.00 0.00 0.00 0.00 0.00 0.01 0.02 0.02 0.03 0.03 0.02 0.03 0.04 0.01 0.00 0.00 0.00 0.00 0.00 0.00 0.00 0.00
0.01 0.00 0.00 0.00 0.00 0.00 0.00 0.00 0.00 0.00 0.00 0.00 0.00 0.00 0.00 0.00 0.00 0.00 0.00 0.00 0.00 0.00 0.00 0.00 0.00 0.00 0.00 0.00 0.00 0.00 0.00 0.01 0.01 0.01 0.02 0.02 0.01 0.01 0.01 0.00 0.00 0.00 0.00 0.00 0.00 0.00 0.00 0.00 0.00
0.01 0.00 0.00 0.00 0.00 0.00 0.00 0.00 0.00 0.00 0.00 0.00 0.00 0.00 0.00 0.00 0.00 0.00 0.00 0.00 0.00 0.00 0.00 0.00 0.00 0.00 0.00 0.00 0.00 0.00 0.00 0.01 0.01 0.02 0.09 0.16 0.19 0.09 0.01 0.02 0.02 0.02 0.00 0.00 0.00 0.00 0.00 0.00 0.00
0.01 0.02 0.00 0.00 0.00 0.00 0.00 0.00 0.00 0.00 0.00 0.00 0.00 0.00 0.00 0.00 0.00 0.00 0.00 0.00 0.00 0.00 0.01 0.00 0.00 0.00 0.00 0.00 0.00 0.00 0.00 0.00 0.03 0.10 0.07 0.02 0.10 0.30 0.04 0.04 0.01 0.01 0.00 0.00 0.00 0.00 0.00 0.00 0.00
0.03 0.02 0.00 0.00 0.00 0.00 0.00 0.00 0.00 0.00 0.00 0.00 0.00 0.00 0.00 0.00 0.00 0.00 0.00 0.00 0.00 0.00 0.01 0.00 0.00 0.00 0.00 0.00 0.00 0.00 0.02 0.01 0.02 0.00 0.00 0.00 0.00 0.02 0.00 0.00 0.00 0.00 0.00 0.00 0.00 0.00 0.00 0.00 0.00
0.04 0.01 0.00 0.00 0.00 0.00 0.00 0.00 0.00 0.00 0.00 0.00 0.00 0.00 0.00 0.00 0.00 0.00 0.00 0.00 0.00 0.00 0.01 0.00 0.00 0.00 0.00 0.00 0.00 0.00 0.00 0.00 0.00 0.00 0.00 0.00 0.00 0.00 0.00 0.00 0.00 0.00 0.00 0.00 0.00 0.00 0.00 0.00 0.00
0.01 0.00 0.00 0.00 0.00 0.00 0.00 0.00 0.00 0.00 0.00 0.00 0.00 0.00 0.00 0.00 0.00 0.00 0.00 0.00 0.00 0.00 0.00 0.00 0.00 0.00 0.00 0.00 0.00 0.00 0.00 0.00 0.00 0.00 0.00 0.00 0.00 0.00 0.00 0.00 0.00 0.00 0.00 0.00 0.00 0.00 0.00 0.00 0.00
0.00 0.00 0.00 0.00 0.00 0.00 0.00 0.00 0.00 0.00 0.00 0.00 0.00 0.00 0.00 0.00 0.00 0.00 0.00 0.01 0.00 0.00 0.00 0.02 0.00 0.00 0.00 0.00 0.00 0.00 0.00 0.00 0.00 0.00 0.00 0.00 0.00 0.00 0.00 0.00 0.00 0.00 0.00 0.00 0.00 0.00 0.00 0.00 0.00
0.00 0.00 0.00 0.00 0.00 0.00 0.00 0.00 0.00 0.00 0.00 0.00 0.00 0.00 0.00 0.00 0.00 0.00 0.02 0.03 0.01 0.00 0.00 0.01 0.01 0.00 0.00 0.00 0.00 0.00 0.00 0.00 0.00 0.00 0.00 0.00 0.00 0.00 0.00 0.00 0.00 0.00 0.00 0.00 0.00 0.00 0.00 0.00 0.00
0.00 0.00 0.00 0.00 0.00 0.00 0.00 0.00 0.00 0.00 0.00 0.00 0.00 0.00 0.00 0.00 0.00 0.00 0.01 0.01 0.00 0.01 0.00 0.01 0.01 0.00 0.00 0.00 0.00 0.00 0.00 0.00 0.00 0.01 0.02 0.02 0.01 0.02 0.01 0.00 0.00 0.00 0.00 0.00 0.00 0.00 0.00 0.00 0.00
0.00 0.00 0.00 0.00 0.00 0.00 0.01 0.00 0.00 0.00 0.00 0.00 0.00 0.00 0.00 0.00 0.00 0.00 0.00 0.00 0.00 0.00 0.01 0.02 0.03 0.01 0.00 0.00 0.00 0.00 0.00 0.00 0.00 0.00 0.01 0.00 0.04 0.05 0.01 0.00 0.00 0.00 0.00 0.00 0.00 0.00 0.00 0.00 0.00
0.00 0.00 0.00 0.00 0.00 0.00 0.00 0.00 0.00 0.00 0.00 0.00 0.00 0.00 0.00 0.00 0.00 0.00 0.00 0.00 0.00 0.00 0.02 0.03 0.07 0.02 0.00 0.01 0.00 0.00 0.01 0.00 0.01 0.00 0.00 0.02 0.03 0.02 0.00 0.00 0.00 0.00 0.00 0.00 0.00 0.00 0.00 0.00 0.00
0.00 0.00 0.00 0.00 0.00 0.01 0.01 0.00 0.00 0.00 0.00 0.00 0.00 0.00 0.00 0.00 0.00 0.00 0.00 0.00 0.00 0.01 0.06 0.10 0.07 0.06 0.04 0.03 0.01 0.02 0.04 0.00 0.00 0.00 0.01 0.05 0.03 0.00 0.00 0.00 0.00 0.00 0.00 0.00 0.00 0.00 0.00 0.00 0.00
0.00 0.00 0.00 0.00 0.00 0.00 0.02 0.01 0.00 0.00 0.00 0.00 0.00 0.00 0.00 0.00 0.00 0.00 0.00 0.00 0.00 0.03 0.05 0.12 0.10 0.17 0.11 0.15 0.13 0.11 0.09 0.01 0.00 0.01 0.04 0.04 0.02 0.00 0.00 0.00 0.00 0.00 0.00 0.00 0.00 0.00 0.00 0.00 0.00
0.01 0.01 0.00 0.00 0.00 0.00 0.00 0.01 0.00 0.00 0.00 0.00 0.00 0.00 0.00 0.00 0.00 0.00 0.00 0.00 0.01 0.04 0.05 0.07 0.13 0.15 0.15 0.14 0.06 0.03 0.01 0.00 0.00 0.00 0.01 0.04 0.00 0.00 0.00 0.01 0.00 0.00 0.00 0.00 0.00 0.00 0.00 0.00 0.00
0.00 0.00 0.00 0.00 0.00 0.00 0.00 0.00 0.00 0.00 0.00 0.00 0.00 0.00 0.00 0.00 0.00 0.00 0.00 0.01 0.03 0.04 0.05 0.05 0.09 0.10 0.10 0.21 0.21 0.06 0.02 0.04 0.02 0.00 0.00 0.00 0.00 0.00 0.01 0.00 0.00 0.00 0.00 0.00 0.00 0.00 0.00 0.00 0.00
0.00 0.00 0.00 0.00 0.00 0.00 0.00 0.02 0.00 0.00 0.00 0.01 0.02 0.00 0.00 0.00 0.00 0.00 0.00 0.00 0.02 0.03 0.03 0.04 0.08 0.08 0.11 0.11 0.26 0.18 0.16 0.09 0.01 0.00 0.00 0.00 0.00 0.01 0.01 0.00 0.00 0.00 0.00 0.00 0.00 0.00 0.00 0.00 0.00
0.00 0.00 0.00 0.00 0.00 0.00 0.01 0.01 0.01 0.02 0.01 0.01 0.01 0.01 0.00 0.00 0.00 0.00 0.00 0.00 0.00 0.03 0.04 0.08 0.08 0.09 0.06 0.09 0.12 0.10 0.02 0.00 0.00 0.00 0.00 0.00 0.00 0.00 0.00 0.00 0.00 0.00 0.00 0.00 0.00 0.00 0.00 0.00 0.00
0.00 0.00 0.00 0.00 0.00 0.00 0.00 0.01 0.01 0.04 0.06 0.01 0.00 0.00 0.00 0.00 0.00 0.00 0.00 0.00 0.00 0.02 0.04 0.06 0.07 0.10 0.08 0.04 0.10 0.26 0.25 0.10 0.02 0.01 0.00 0.00 0.00 0.00 0.00 0.00 0.00 0.00 0.00 0.00 0.00 0.00 0.00 0.00 0.00
0.00 0.00 0.00 0.00 0.00 0.00 0.00 0.00 0.00 0.00 0.01 0.00 0.00 0.00 0.00 0.00 0.00 0.00 0.00 0.00 0.01 0.05 0.08 0.07 0.04 0.07 0.07 0.04 0.08 0.18 0.24 0.13 0.02 0.01 0.01 0.00 0.00 0.00 0.00 0.00 0.00 0.00 0.00 0.00 0.00 0.00 0.00 0.00 0.00
0.00 0.00 0.00 0.00 0.00 0.00 0.00 0.00 0.00 0.00 0.00 0.00 0.00 0.00 0.00 0.00 0.00 0.00 0.00 0.00 0.01 0.05 0.06 0.06 0.06 0.04 0.05 0.05 0.04 0.08 0.14 0.20 0.17 0.08 0.00 0.01 0.00 0.00 0.00 0.00 0.00 0.00 0.00 0.00 0.00 0.00 0.00 0.00 0.00
0.00 0.00 0.00 0.00 0.00 0.00 0.01 0.00 0.00 0.00 0.00 0.00 0.00 0.00 0.00 0.00 0.00 0.00 0.00 0.00 0.00 0.03 0.06 0.05 0.04 0.05 0.03 0.04 0.03 0.06 0.07 0.13 0.19 0.16 0.13 0.03 0.03 0.04 0.01 0.00 0.00 0.00 0.00 0.00 0.00 0.00 0.00 0.00 0.00
0.00 0.00 0.00 0.00 0.00 0.00 0.00 0.00 0.00 0.00 0.00 0.00 0.00 0.00 0.00 0.00 0.00 0.00 0.00 0.00 0.00 0.00 0.04 0.07 0.08 0.04 0.03 0.03 0.03 0.05 0.05 0.07 0.16 0.19 0.15 0.15 0.07 0.03 0.07 0.04 0.01 0.00 0.00 0.00 0.00 0.00 0.00 0.00 0.00
0.00 0.00 0.00 0.00 0.00 0.00 0.00 0.00 0.00 0.00 0.00 0.00 0.00 0.00 0.00 0.00 0.00 0.00 0.00 0.00 0.00 0.00 0.01 0.04 0.09 0.09 0.06 0.02 0.03 0.03 0.04 0.04 0.11 0.15 0.14 0.13 0.15 0.10 0.04 0.05 0.06 0.02 0.00 0.00 0.00 0.00 0.00 0.00 0.00
0.00 0.00 0.00 0.00 0.00 0.00 0.00 0.00 0.00 0.00 0.00 0.00 0.00 0.00 0.00 0.00 0.00 0.00 0.00 0.00 0.00 0.00 0.00 0.02 0.05 0.07 0.06 0.04 0.03 0.03 0.04 0.03 0.06 0.11 0.10 0.09 0.10 0.14 0.15 0.07 0.04 0.04 0.03 0.01 0.01 0.01 0.01 0.02 0.03
0.00 0.00 0.00 0.00 0.00 0.00 0.00 0.00 0.00 0.00 0.00 0.00 0.00 0.00 0.00 0.00 0.00 0.00 0.00 0.00 0.00 0.00 0.00 0.01 0.01 0.02 0.05 0.06 0.05 0.04 0.04 0.04 0.03 0.05 0.09 0.10 0.08 0.05 0.08 0.10 0.09 0.04 0.03 0.02 0.02 0.02 0.03 0.03 0.02
MSLP
1013.47 1013.63 1013.63 1014.05 1015.35 1015.15 1014.16 1012.91 1011.44 1010.40 1009.68 1008.18 1007.52 1007.19 1007.25 1007.51 1008.13 1009.48 1009.02 1009.69 1010.40 1011.25 1011.74 1012.42 1012.88 1013.48 1014.03 1014.41 1014.76 1015.11 1015.44 1015.78 1016.14 1016.48 1016.68 1017.01 1017.27 1017.54 1017.70 1017.98 1018.06 1018.34 1018.45 1018.60 1018.98 1019.33 1019.58 1019.82 1019.95
1013.62 1013.73 1014.01 1014.68 1015.15 1014.52 1013.46 1012.42 1010.86 1009.80 1008.52 1007.63 1007.33 1007.01 1007.10 1007.70 1008.00 1008.92 1009.54 1009.82 1010.41 1011.15 1011.76 1012.34 1012.77 1013.38 1014.03 1014.47 1014.88 1015.21 1015.56 1015.88 1016.21 1016.62 1016.81 1017.13 1017.42 1017.71 1017.93 1018.16 1018.38 1018.64 1018.86 1019.06 1019.40 1019.77 1020.03 1020.29 1020.36
1014.16 1014.08 1014.63 1014.98 1014.44 1012.75 1012.59 1011.56 1010.50 1009.08 1008.18 1007.97 1007.46 1006.86 1006.98 1007.63 1008.06 1008.35 1008.88 1009.81 1010.46 1011.26 1011.81 1012.40 1012.78 1013.33 1013.97 1014.54 1014.99 1015.34 1015.71 1015.95 1016.32 1016.77 1017.03 1017.29 1017.54 1017.84 1018.19 1018.45 1018.73 1019.03 1019.35 1019.57 1019.83 1020.15 1020.33 1020.58 1020.72
1014.35 1014.37 1014.72 1014.32 1013.02 1012.45 1011.54 1010.53 1009.66 1009.11 1007.52 1007.67 1007.35 1006.85 1007.19 1007.21 1007.52 1007.97 1009.02 1009.69 1010.57 1011.40 1011.91 1012.45 1012.88 1013.39 1013.98 1014.55 1015.03 1015.45 1015.89 1016.15 1016.54 1016.92 1017.22 1017.49 1017.73 1018.10 1018.43 1018.84 1019.08 1019.40 1019.64 1019.94 1020.25 1020.53 1020.77 1021.00 1021.05
1014.50 1014.22 1014.38 1013.00 1012.13 1011.85 1011.24 1010.00 1009.36 1008.96 1008.01 1007.57 1007.15 1007.41 1007.45 1007.44 1007.18 1008.10 1009.07 1009.65 1010.43 1011.43 1011.96 1012.54 1012.94 1013.50 1014.02 1014.53 1015.04 1015.52 1016.00 1016.25 1016.67 1017.07 1017.47 1017.72 1017.95 1018.40 1018.84 1019.10 1019.38 1019.69 1019.97 1020.24 1020.52 1020.85 1021.12 1021.22 1021.25
1014.63 1013.82 1013.15 1011.51 1011.79 1011.57 1010.77 1009.98 1008.79 1008.66 1008.13 1007.86 1007.29 1007.43 1007.61 1007.59 1007.17 1008.47 1009.18 1009.69 1010.39 1011.25 1011.86 1012.56 1013.09 1013.61 1014.03 1014.50 1015.04 1015.58 1016.00 1016.49 1016.74 1017.25 1017.64 1017.84 1018.15 1018.60 1019.02 1019.34 1019.70 1020.01 1020.28 1020.60 1020.88 1021.18 1021.44 1021.56 1021.61
1014.31 1013.40 1011.50 1011.84 1011.56 1011.09 1010.05 1009.69 1008.88 1008.19 1007.72 1007.67 1006.95 1007.53 1008.08 1008.20 1007.66 1008.20 1009.17 1009.65 1010.51 1011.08 1011.75 1012.49 1013.07 1013.64 1014.15 1014.57 1015.04 1015.58 1016.04 1016.56 1016.87 1017.39 1017.72 1017.90 1018.35 1018.85 1019.27 1019.64 1020.00 1020.37 1020.72 1020.99 1021.38 1021.64 1021.84 1021.96 1022.07
1014.37 1013.39 1012.40 1011.15 1011.21 1010.48 1009.61 1008.90 1008.22 1007.80 1006.87 1006.56 1006.85 1006.86 1007.99 1008.15 1008.09 1008.34 1009.37 1010.11 1010.68 1011.30 1011.84 1012.40 1013.09 1013.65 1014.23 1014.72 1015.13 1015.64 1016.13 1016.63 1017.08 1017.43 1017.96 1018.39 1018.76 1019.11 1019.69 1020.10 1020.40 1020.76 1021.18 1021.45 1021.79 1022.17 1022.41 1022.59 1022.65
1014.40 1013.25 1010.76 1010.37 1011.03 1010.40 1009.38 1009.05 1008.15 1007.35 1007.25 1006.32 1006.23 1006.61 1006.79 1007.50 1008.21 1009.10 1009.63 1010.52 1011.09 1011.58 1011.97 1012.29 1013.13 1013.70 1014.30 1014.73 1015.27 1015.71 1016.28 1016.80 1017.41 1017.94 1018.32 1018.82 1019.18 1019.65 1020.11 1020.62 1020.86 1021.22 1021.54 1021.93 1022.36 1022.72 1022.98 1023.15 1023.38
1014.60 1013.07 1011.20 1011.90 1011.10 1010.66 1010.14 1009.46 1008.83 1008.03 1007.52 1007.02 1006.89 1006.66 1007.04 1007.31 1008.27 1009.17 1009.63 1010.24 1010.97 1011.47 1012.00 1012.40 1013.02 1013.62 1014.26 1014.81 1015.41 1015.91 1016.48 1017.01 1017.61 1018.08 1018.56 1019.05 1019.55 1020.03 1020.62 1021.07 1021.31 1021.70 1022.12 1022.56 1022.79 1023.17 1023.43 1023.70 1024.08
1015.05 1013.70 1013.44 1012.33 1012.13 1011.60 1010.87 1010.00 1009.71 1009.04 1008.31 1006.90 1007.02 1007.16 1007.50 1007.39 1008.14 1008.91 1009.41 1009.25 1010.18 1010.94 1011.76 1012.26 1012.81 1013.46 1014.05 1014.71 1015.33 1016.00 1016.54 1017.16 1017.83 1018.40 1018.82 1019.32 1019.90 1020.47 1021.08 1021.57 1021.75 1022.19 1022.64 1023.00 1023.20 1023.54 1024.03 1024.41 1024.69
1016.10 1014.83 1014.96 1014.68 1013.88 1013.62 1012.66 1010.90 1010.20 1009.44 1008.68 1008.01 1006.66 1006.78 1007.57 1008.02 1008.18 1008.76 1009.54 1009.97 1010.40 1010.90 1011.36 1012.04 1012.67 1013.35 1013.93 1014.53 1015.26 1015.89 1016.37 1017.11 1017.99 1018.52 1019.01 1019.44 1020.08 1020.69 1021.32 1021.70 1022.21 1022.53 1023.05 1023.37 1023.70 1024.21 1024.74 1025.12 1025.50
1016.43 1015.74 1015.14 1015.19 1015.05 1014.78 1013.24 1012.05 1011.30 1010.29 1008.97 1008.23 1008.07 1007.01 1007.37 1008.02 1008.47 1008.58 1009.17 1009.82 1010.20 1010.86 1011.44 1011.87 1012.38 1013.11 1013.64 1014.27 1015.01 1015.77 1016.41 1017.08 1017.90 1018.52 1019.04 1019.60 1020.08 1020.67 1021.27 1022.10 1022.45 1022.85 1023.18 1023.59 1024.21 1024.71 1025.30 1025.76 1026.24
1016.46 1015.86 1015.19 1014.96 1014.52 1014.66 1014.17 1012.37 1011.91 1010.02 1009.42 1008.80 1007.96 1008.04 1007.62 1007.86 1008.36 1008.77 1009.15 1009.88 1010.38 1010.78 1011.23 1011.68 1012.19 1013.01 1013.42 1014.16 1014.72 1015.53 1016.42 1017.16 1017.85 1018.53 1019.03 1019.58 1020.00 1020.63 1021.30 1022.06 1022.58 1022.99 1023.38 1023.94 1024.50 1025.14 1025.87 1026.42 1026.76
1016.67 1016.19 1015.55 1014.64 1014.30 1013.56 1013.42 1012.05 1009.97 1010.82 1009.99 1009.16 1008.79 1008.42 1007.79 1007.92 1008.00 1008.28 1008.65 1009.29 1009.84 1010.42 1010.87 1011.52 1012.02 1012.78 1013.57 1014.03 1014.51 1015.45 1016.45 1017.10 1017.72 1018.44 1018.92 1019.40 1020.01 1020.62 1021.27 1021.97 1022.58 1023.15 1023.61 1024.21 1024.89 1025.68 1026.23 1026.62 1027.08
1017.45 1016.85 1016.12 1014.28 1013.53 1013.31 1012.58 1010.81 1010.42 1010.37 1010.63 1009.74 1008.97 1009.13 1008.74 1008.18 1008.26 1007.97 1008.28 1008.90 1009.56 1010.13 1010.72 1011.35 1011.88 1012.53 1013.29 1013.85 1014.31 1015.16 1016.15 1016.99 1017.65 1018.28 1018.90 1019.39 1020.02 1020.59 1021.19 1022.08 1022.76 1023.33 1023.69 1024.36 1025.22 1025.99 1026.62 1027.26 1027.68
1018.09 1017.95 1017.01 1015.42 1013.16 1012.53 1012.34 1011.30 1010.43 1010.18 1010.28 1010.04 1009.32 1009.13 1009.08 1008.35 1007.98 1008.12 1008.01 1008.49 1009.16 1009.66 1010.34 1011.33 1011.77 1012.33 1013.01 1013.80 1014.35 1014.99 1015.85 1016.72 1017.48 1018.15 1018.78 1019.55 1019.92 1020.52 1021.02 1022.19 1023.03 1023.33 1023.84 1024.64 1025.31 1026.32 1026.58 1027.54 1028.30
1019.25 1018.99 1017.44 1015.97 1014.28 1013.30 1012.40 1011.76 1010.97 1010.21 1010.20 1010.09 1009.59 1009.15 1009.30 1008.89 1008.17 1008.02 1008.15 1008.22 1008.83 1009.41 1010.14 1010.88 1011.61 1012.29 1012.89 1013.74 1014.53 1015.26 1016.11 1016.76 1017.37 1017.95 1018.61 1019.25 1019.88 1020.39 1021.11 1022.18 1023.00 1023.27 1023.88 1024.76 1025.68 1026.28 1027.01 1027.66 1028.42
1019.24 1018.77 1017.96 1016.40 1014.79 1013.92 1012.71 1012.20 1010.92 1010.39 1010.04 1010.37 1010.14 1009.69 1009.47 1009.17 1008.20 1007.92 1008.26 1008.45 1008.86 1009.40 1010.30 1010.84 1011.53 1012.29 1012.86 1013.43 1014.26 1015.07 1015.68 1016.65 1017.44 1017.86 1018.32 1019.03 1019.54 1020.22 1021.04 1021.85 1022.65 1023.23 1023.76 1024.48 1025.56 1026.36 1027.01 1028.19 1028.43
1019.16 1019.16 1018.05 1016.34 1015.48 1014.86 1013.43 1012.52 1011.38 1011.00 1010.92 1010.49 1010.46 1010.87 1010.79 1010.30 1008.92 1008.41 1008.35 1008.71 1008.97 1009.50 1010.09 1010.75 1011.28 1011.97 1012.45 1013.02 1013.80 1014.34 1015.19 1015.98 1016.75 1017.54 1018.18 1018.74 1019.34 1020.00 1020.68 1021.43 1022.40 1022.93 1023.66 1024.48 1025.48 1025.92 1026.92 1027.84 1027.96
1019.13 1018.96 1018.15 1017.07 1015.45 1014.53 1014.11 1012.87 1012.08 1011.89 1011.87 1011.73 1012.80 1012.97 1012.76 1012.79 1011.35 1010.58 1009.09 1008.87 1008.84 1009.49 1009.94 1010.40 1011.05 1011.81 1012.09 1012.73 1014.10 1014.75 1015.52 1016.42 1017.02 1017.64 1018.24 1018.51 1019.20 1019.69 1020.41 1021.24 1021.87 1022.65 1023.17 1024.02 1024.94 1025.47 1025.88 1026.93 1027.76
1019.46 1018.80 1018.00 1017.08 1016.29 1015.43 1014.12 1013.37 1013.35 1013.55 1014.03 1014.68 1015.06 1014.77 1014.99 1013.80 1013.61 1012.75 1011.49 1010.38 1009.09 1009.15 1009.64 1009.95 1010.84 1011.33 1011.77 1012.32 1013.52 1014.29 1014.51 1015.47 1016.16 1016.72 1017.50 1018.27 1018.93 1019.61 1020.27 1020.98 1021.54 1022.20 1022.91 1023.74 1024.43 1024.88 1025.36 1025.76 1026.68
1019.58 1018.80 1018.37 1017.47 1016.54 1015.93 1014.96 1015.16 1016.61 1015.87 1016.33 1017.22 1017.11 1016.53 1016.30 1015.65 1015.30 1014.24 1013.56 1012.13 1010.36 1008.92 1009.44 1010.09 1010.41 1011.21 1011.67 1011.95 1012.69 1013.86 1014.49 1014.97 1015.55 1016.44 1017.16 1018.18 1018.81 1019.33 1019.98 1020.60 1021.22 1021.90 1022.55 1023.26 1023.86 1024.60 1025.10 1025.37 1026.07
1019.51 1019.13 1018.38 1017.85 1017.41 1016.78 1016.22 1016.51 1018.85 1019.19 1019.88 1019.36 1018.75 1018.05 1017.12 1016.54 1015.89 1015.18 1014.57 1013.27 1012.12 1011.00 1009.20 1009.66 1010.44 1010.98 1011.50 1011.98 1012.37 1012.85 1014.17 1014.73 1015.47 1016.18 1016.83 1017.73 1018.59 1019.18 1019.66 1020.21 1020.70 1021.42 1022.10 1022.70 1023.21 1023.86 1024.55 1024.99 1025.46
1020.07 1020.08 1019.90 1019.47 1018.90 1018.02 1017.45 1018.39 1021.10 1021.54 1021.30 1021.15 1020.50 1019.63 1018.84 1017.86 1016.99 1016.46 1015.52 1014.36 1013.49 1012.44 1011.24 1009.55 1010.13 1010.84 1011.25 1011.60 1012.20 1012.50 1013.61 1014.33 1014.74 1015.11 1015.73 1016.86 1017.84 1018.61 1019.05 1019.47 1020.17 1020.85 1021.58 1022.26 1022.83 1023.49 1024.09 1024.53 1025.06
1020.87 1020.96 1021.23 1021.16 1020.12 1019.02 1018.50 1020.78 1022.07 1022.31 1022.32 1021.77 1020.98 1020.69 1020.36 1019.10 1018.50 1018.01 1017.09 1015.88 1014.86 1013.71 1012.26 1010.62 1010.42 1010.66 1010.98 1011.29 1011.78 1012.36 1012.99 1013.92 1014.55 1015.02 1015.44 1015.87 1016.64 1017.42 1018.07 1018.88 1019.56 1020.22 1020.96 1021.78 1022.34 1023.00 1023.69 1024.12 1024.74
1021.47 1022.09 1022.25 1022.20 1021.02 1020.62 1021.80 1022.52 1022.50 1022.17 1022.11 1022.16 1022.04 1021.42 1020.70 1019.69 1019.26 1018.68 1017.53 1016.86 1015.98 1014.24 1013.35 1012.56 1010.77 1010.73 1010.80 1010.95 1011.45 1011.82 1012.49 1013.25 1013.72 1014.49 1015.08 1015.82 1016.32 1017.01 1017.67 1018.30 1019.19 1019.87 1020.41 1021.09 1021.85 1022.65 1023.24 1023.92 1024.43
1022.59 1022.99 1023.24 1022.90 1022.88 1023.34 1023.83 1024.49 1024.86 1023.74 1023.49 1023.16 1022.89 1022.21 1021.20 1020.68 1020.02 1019.07 1018.60 1017.58 1016.29 1015.02 1014.21 1013.12 1011.79 1010.82 1010.64 1010.71 1010.97 1011.46 1011.93 1012.61 1013.11 1013.91 1014.60 1015.24 1015.98 1016.64 1017.05 1017.95 1018.74 1019.48 1020.10 1020.72 1021.37 1022.24 1022.87 1023.53 1024.01
1023.89 1024.70 1024.74 1024.73 1024.62 1024.65 1024.67 1025.44 1025.43 1025.73 1025.39 1024.71 1023.82 1023.12 1022.06 1021.05 1019.88 1018.66 1018.68 1017.73 1016.56 1015.84 1014.95 1014.30 1013.31 1012.24 1011.02 1010.79 1010.82 1011.15 1011.62 1012.07 1012.65 1013.20 1014.04 1014.77 1015.58 1016.05 1016.88 1017.24 1018.00 1018.76 1019.56 1020.17 1020.99 1021.70 1022.44 1023.15 1023.70
1025.77 1026.30 1026.58 1026.82 1026.95 1026.82 1026.86 1027.32 1026.62 1026.60 1025.61 1024.95 1024.47 1023.60 1022.54 1022.03 1020.96 1019.90 1018.52 1017.46 1017.00 1016.45 1015.99 1015.45 1014.49 1013.76 1012.68 1011.16 1010.80 1011.17 1011.46 1011.81 1012.15 1012.78 1013.36 1014.20 1014.84 1015.46 1016.14 1017.04 1017.68 1018.20 1018.69 1019.56 1020.35 1021.25 1022.04 1022.83 1023.45
Thickness
5657 5655 5655 5651 5628 5619 5625 5649 5687 5689 5696 5723 5733 5727 5720 5731 5724 5699 5748 5752 5750 5744 5740 5737 5735 5731 5729 5728 5727 5726 5726 5726 5725 5725 5726 5725 5725 5725 5726 5726 5727 5726 5727 5728 5725 5724 5722 5722 5722
5649 5648 5642 5632 5616 5609 5627 5660 5676 5689 5712 5724 5723 5723 5720 5719 5733 5731 5735 5747 5746 5741 5736 5734 5733 5729 5725 5724 5724 5723 5723 5723 5723 5722 5723 5723 5723 5722 5722 5723 5724 5723 5723 5723 5721 5719 5718 5717 5719
5634 5636 5624 5614 5610 5634 5630 5659 5678 5697 5706 5709 5709 5718 5725 5723 5729 5732 5744 5745 5743 5735 5732 5729 5730 5726 5723 5720 5719 5719 5719 5720 5719 5718 5719 5720 5720 5719 5719 5719 5720 5719 5718 5717 5717 5715 5715 5714 5715
5622 5621 5615 5605 5622 5637 5652 5671 5684 5688 5706 5703 5706 5702 5728 5735 5730 5740 5743 5742 5737 5729 5727 5724 5724 5722 5719 5717 5715 5715 5714 5715 5714 5714 5715 5716 5716 5716 5715 5715 5716 5715 5715 5713 5712 5711 5711 5710 5711
5606 5609 5597 5610 5626 5637 5648 5669 5680 5679 5691 5694 5700 5693 5711 5728 5737 5736 5733 5735 5729 5723 5721 5720 5719 5718 5716 5714 5712 5711 5709 5711 5710 5710 5710 5711 5713 5711 5710 5711 5711 5710 5709 5708 5708 5707 5706 5707 5708
5591 5603 5600 5621 5622 5628 5645 5660 5673 5677 5681 5682 5691 5693 5705 5725 5733 5726 5725 5727 5727 5720 5718 5716 5714 5713 5712 5711 5709 5707 5706 5705 5707 5706 5706 5708 5708 5707 5705 5706 5705 5704 5703 5703 5704 5703 5702 5704 5704
5580 5586 5610 5606 5615 5619 5639 5658 5659 5671 5679 5674 5696 5685 5698 5706 5723 5723 5717 5722 5720 5716 5714 5712 5710 5708 5707 5707 5706 5704 5704 5702 5703 5702 5703 5706 5705 5702 5700 5700 5699 5698 5697 5699 5698 5698 5699 5700 5700
5558 5569 5583 5599 5601 5609 5634 5651 5664 5665 5676 5697 5692 5678 5675 5703 5712 5718 5708 5708 5712 5709 5708 5708 5706 5705 5703 5703 5702 5701 5700 5699 5698 5700 5698 5698 5698 5696 5695 5694 5693 5693 5692 5693 5693 5693 5693 5693 5694
5539 5547 5583 5602 5591 5604 5627 5630 5650 5664 5662 5678 5685 5686 5697 5704 5700 5698 5696 5696 5702 5701 5703 5706 5703 5701 5699 5699 5697 5697 5695 5695 5693 5692 5693 5694 5693 5690 5688 5686 5688 5687 5687 5687 5687 5686 5687 5687 5687
5506 5527 5573 5581 5590 5591 5606 5612 5625 5635 5644 5658 5660 5677 5686 5692 5692 5686 5690 5694 5697 5696 5699 5701 5699 5697 5694 5693 5692 5692 5690 5691 5688 5688 5690 5689 5687 5684 5682 5681 5682 5681 5681 5679 5680 5679 5680 5681 5680
5473 5504 5531 5551 5557 5567 5580 5590 5605 5609 5621 5651 5648 5658 5669 5679 5686 5685 5689 5699 5698 5696 5694 5695 5695 5693 5692 5690 5689 5686 5688 5686 5684 5685 5685 5682 5679 5677 5676 5676 5677 5676 5674 5675 5676 5675 5673 5672 5671
5433 5468 5482 5485 5506 5519 5548 5577 5585 5602 5617 5633 5651 5657 5657 5662 5675 5680 5679 5683 5687 5687 5692 5690 5690 5689 5688 5687 5684 5683 5684 5683 5680 5679 5677 5676 5675 5673 5673 5672 5671 5672 5669 5670 5670 5668 5666 5665 5663
5402 5431 5458 5462 5476 5487 5523 5546 5563 5577 5607 5623 5633 5646 5649 5652 5663 5674 5675 5675 5678 5678 5683 5684 5685 5685 5684 5684 5681 5679 5679 5678 5674 5673 5672 5671 5671 5670 5669 5665 5666 5665 5665 5666 5663 5661 5658 5656 5653
5395 5415 5436 5449 5462 5473 5485 5522 5548 5576 5586 5603 5622 5626 5636 5643 5654 5660 5663 5663 5667 5671 5676 5679 5682 5680 5681 5681 5679 5677 5675 5672 5669 5667 5668 5668 5668 5666 5664 5661 5662 5659 5660 5659 5658 5655 5651 5649 5646
5381 5385 5403 5426 5451 5462 5481 5513 5548 5556 5567 5586 5603 5616 5625 5630 5649 5657 5662 5662 5667 5669 5672 5674 5677 5676 5675 5677 5676 5674 5668 5666 5665 5663 5664 5666 5663 5663 5660 5658 5659 5655 5656 5655 5651 5648 5645 5644 5641
5362 5374 5364 5429 5446 5450 5472 5511 5526 5546 5548 5566 5588 5601 5608 5617 5636 5652 5656 5656 5662 5663 5664 5667 5672 5672 5671 5674 5673 5670 5664 5661 5660 5660 5661 5660 5659 5659 5657 5656 5653 5651 5652 5650 5645 5642 5640 5637 5634
5317 5325 5365 5401 5440 5452 5459 5481 5517 5534 5540 5549 5570 5587 5596 5608 5628 5640 5649 5651 5656 5660 5661 5658 5665 5668 5668 5668 5667 5665 5661 5658 5656 5658 5657 5653 5655 5655 5654 5651 5646 5648 5648 5644 5642 5637 5637 5631 5627
5281 5297 5358 5381 5409 5423 5446 5463 5496 5517 5531 5540 5558 5575 5586 5595 5615 5631 5638 5646 5649 5653 5655 5656 5659 5660 5662 5660 5659 5658 5655 5652 5653 5655 5654 5650 5650 5651 5650 5644 5643 5645 5643 5639 5636 5634 5630 5627 5623
5334 5340 5345 5370 5403 5406 5431 5448 5486 5511 5522 5530 5546 5563 5575 5582 5603 5619 5626 5634 5640 5643 5643 5648 5650 5651 5653 5655 5654 5653 5654 5649 5649 5650 5652 5649 5648 5648 5645 5642 5641 5640 5639 5637 5632 5630 5627 5620 5620
5333 5306 5322 5367 5388 5389 5416 5439 5478 5497 5510 5530 5542 5550 5558 5562 5585 5602 5615 5622 5626 5632 5636 5640 5643 5646 5650 5653 5653 5655 5651 5649 5648 5645 5646 5645 5645 5645 5642 5642 5638 5636 5635 5632 5628 5628 5624 5619 5620
5307 5308 5325 5355 5392 5403 5404 5439 5467 5485 5500 5521 5499 5502 5515 5524 5544 5565 5595 5609 5618 5623 5627 5633 5637 5639 5646 5648 5641 5640 5639 5637 5637 5636 5639 5641 5641 5642 5639 5637 5636 5632 5633 5629 5625 5625 5626 5622 5616
5291 5340 5353 5369 5378 5392 5412 5439 5464 5463 5464 5459 5462 5478 5487 5509 5518 5542 5565 5580 5605 5616 5621 5628 5629 5634 5640 5642 5637 5638 5642 5641 5642 5642 5640 5637 5636 5636 5634 5632 5632 5631 5629 5626 5624 5624 5625 5626 5621
5308 5337 5349 5370 5382 5389 5412 5421 5398 5421 5422 5426 5445 5458 5470 5487 5499 5517 5536 5557 5587 5609 5612 5617 5622 5624 5629 5635 5638 5635 5635 5639 5638 5634 5634 5630 5629 5630 5629 5629 5629 5628 5626 5623 5623 5621 5620 5622 5619
5329 5325 5351 5375 5383 5399 5406 5411 5377 5387 5387 5401 5421 5445 5461 5474 5488 5504 5520 5540 5559 5577 5605 5611 5611 5614 5619 5625 5630 5635 5628 5629 5629 5628 5628 5627 5625 5623 5624 5625 5626 5624 5622 5621 5620 5618 5617 5617 5616
5330 5308 5323 5351 5347 5396 5407 5378 5362 5363 5378 5390 5402 5425 5443 5462 5473 5484 5503 5520 5538 5560 5576 5605 5606 5604 5609 5617 5620 5625 5623 5625 5627 5629 5630 5627 5623 5621 5623 5624 5624 5621 5619 5616 5616 5614 5612 5613 5612
5347 5335 5307 5303 5355 5403 5396 5353 5347 5362 5365 5382 5397 5410 5423 5443 5456 5466 5481 5501 5519 5539 5560 5586 5593 5598 5603 5609 5614 5617 5619 5618 5617 5620 5621 5624 5624 5624 5621 5619 5619 5618 5615 5611 5610 5609 5608 5608 5605
5338 5335 5345 5319 5331 5384 5368 5357 5359 5373 5373 5378 5383 5395 5410 5430 5445 5454 5471 5486 5502 5525 5540 5553 5583 5588 5595 5603 5607 5611 5612 5611 5614 5614 5616 5615 5616 5616 5616 5615 5613 5610 5609 5607 5605 5603 5603 5601 5598
5342 5350 5338 5358 5328 5331 5329 5334 5330 5350 5359 5370 5374 5381 5402 5416 5429 5443 5453 5471 5490 5509 5522 5538 5561 5579 5588 5592 5599 5604 5606 5606 5608 5607 5607 5608 5609 5607 5610 5608 5606 5604 5602 5600 5599 5598 5597 5594 5593
5352 5332 5329 5337 5347 5382 5397 5345 5321 5334 5343 5350 5362 5369 5384 5402 5420 5438 5443 5457 5478 5492 5505 5515 5532 5551 5573 5582 5587 5592 5595 5599 5600 5603 5601 5599 5599 5602 5599 5602 5602 5600 5598 5595 5593 5592 5590 5589 5587
5315 5317 5296 5306 5322 5339 5348 5303 5321 5318 5333 5343 5356 5363 5379 5382 5398 5417 5434 5449 5460 5475 5487 5497 5511 5524 5541 5564 5574 5579 5583 5588 5592 5594 5594 5592 5592 5595 5595 5592 5592 5593 5593 5591 5589 5586 5583 5581 5579